www.pogodaiklimat.ru

Погода и климат >> Архив погоды >> Россия >> Сахалинская область >> Погиби


АРХИВ ПОГОДЫ в Погибях

Время (UTC), дата Ветер
(напр.,м/с)
 
Видим.   Явления Облачность Т
(С)
Тd
(С)
f
(%)
Тe
(С)
Тes
(С)
Комфортность P
(гПа)
Po
(гПа)
Тmin
(С)
Tmax
(С)
R
(мм)
R24
(мм)
S
(см)
09 19.03 С 4-6
{8}
50 км {метель} 4/0
[Ci sp]
-14.6 -16.6 85 -22 -22 1018.1 1017.2 -9.6 2
12 19.03 С 4-4
{6}
50 км {метель} ясно -15.5 -17.4 85 -23 -23 1018.7 1017.8
15 19.03 С 2-2
{4}
50 км ясно -17.6 -19.5 85 -23 -23 1018.9 1018.0
18 19.03 С 2-2
{4}
50 км ясно -18.0 -19.9 85 -23 -23 1019.5 1018.6
21 19.03 С 2-2
{2}
50 км 4/0
[Ac trans Ci sp]
-21.6 -23.4 85 -28 -28 1018.2 1017.2 -21.7 107
00 20.03 С 2-2
{2}
4000 м дымка 10/10 300 м
[St]
-20.3 -21.5 90 -26 -26 1017.7 1016.7
03 20.03 С 2-4
{4}
50 км 5/0
[Ac trans Ci sp]
-15.0 -16.3 90 -20 -13 1017.3 1016.4
06 20.03 С 4-4
{6}
50 км 4/3 1000 м
[Cu med, cong Ac trans Ci sp]
-13.4 -15.4 85 -21 -19 1017.3 1016.4
09 20.03 С 2-4
{6}
50 км 4/0
[Ac trans Ci sp]
-16.3 -18.2 85 -22 -22 1018.8 1017.9 -13.1
12 20.03 СЗ 4-4
{6}
50 км 3/0
[Ac trans]
-17.9 -19.8 85 -26 -26 1020.4 1019.5
15 20.03 С 2-2
{4}
50 км 4/0
[Ac trans Ci sp]
-21.1 -23.0 85 -27 -27 1020.9 1019.9
18 20.03 СВ 2-2
{4}
50 км 3/0
[Ac trans]
-21.9 -23.2 89 -28 -28 1021.2 1020.2
21 20.03 ЮВ 2-2
{2}
4000 м дымка 10/10 300 м
[St]
-27.1 -27.6 95 -34 -34 опасность
обморожения
1020.9 1019.9 -27.4 107
00 21.03 СЗ 2-2
{2}
50 км 8/0
[Ac trans Ci sp]
-18.0 -19.9 85 -23 -20 1020.8 1019.9
03 21.03 СЗ 4-6
{6}
50 км 3/0
[Ci sp]
-13.6 -17.9 70 -21 -16 1018.7 1017.8
06 21.03 СЗ 4-6
{6}
50 км 8/0
[Cs]
-12.8 -18.0 65 -20 -18 1017.9 1017.0
09 21.03 СЗ 4-6
{6}
50 км 8/0
[Ac trans Ci sp]
-16.9 -20.3 75 -25 -25 1016.8 1015.9 -12.1
12 21.03 С 4-6
{6}
50 км 6/0
[Ac trans Ci sp]
-20.5 -21.7 90 -30 -30 1017.0 1016.0
15 21.03 СЗ 4-6
{6}
50 км 5/0
[Ci sp]
-20.7 -21.9 90 -30 -30 1016.2 1015.2
18 21.03 С 4-6
{6}
50 км 3/0
[Ci sp]
-21.9 -23.2 89 -31 -31 опасность
обморожения
1014.6 1013.7
21 21.03 СЗ 4-6
{6}
50 км 5/0
[Ac trans Ci sp]
-22.3 -24.2 84 -32 -32 опасность
обморожения
1013.6 1012.7 -22.5 107
00 22.03 С 4-6
{6}
50 км 8/0
[Ac trans Ci sp]
-19.9 -21.8 85 -29 -27 1014.2 1013.3
03 22.03 С 6-6
{8}
10 км 9/9 300 м
[St]
-15.0 -17.7 80 -25 -24 1013.0 1012.1
06 22.03 С 4-4
{6}
50 км 9/0
[Ac trans Ci sp]
-12.8 -16.3 75 -20 -19 1012.7 1011.8
09 22.03 С 4-4
{6}
50 км 9/0
[Ac trans Ci sp]
-14.8 -18.2 75 -23 -23 1012.7 1011.8 -12.6
12 22.03 С 2-2
{4}
50 км 8/0
[Ac trans Ci sp]
-18.0 -21.4 75 -23 -23 1012.4 1011.5
15 22.03 С 2-2
{2}
50 км 6/0
[Ci sp]
-18.3 -20.9 80 -24 -24 1011.6 1010.7
18 22.03 С 2-2
{2}
50 км 8/0
[Ci sp]
-19.0 -21.6 80 -25 -25 1011.6 1010.7
21 22.03 С 2-2
{2}
50 км 8/0
[Ac trans Ci sp]
-20.0 -21.9 85 -26 -26 1010.4 1009.5 -20.1 107
00 23.03 С 2-4
{4}
50 км 8/0
[Ac trans Ci sp]
-16.9 -18.8 85 -22 -18 1009.1 1008.2
03 23.03 С 2-2
{4}
50 км 5/0
[Ac trans Ci sp]
-11.8 -14.6 80 -16 -9 1007.2 1006.3
06 23.03 С 2-2
{2}
50 км 4/0
[Ac trans Ci sp]
-8.8 -12.2 76 -13 -10 1005.9 1005.0
09 23.03 С 2-2
{2}
50 км 5/0
[Ac trans Ci sp]
-11.2 -13.2 85 -16 -16 1005.9 1005.0 -8.6
12 23.03 СЗ 2-2
{2}
50 км 4/0
[Ci sp]
-18.0 -19.9 85 -23 -23 1005.4 1004.5
15 23.03 СЗ 2-2
{2}
50 км ясно -19.8 -21.7 85 -26 -26 1004.0 1003.1
18 23.03 СЗ 2-2
{2}
50 км ясно -21.0 -22.9 85 -27 -27 1003.5 1002.6
21 23.03 СЗ 2-2
{2}
50 км 8/0
[Ac trans Ci sp]
-22.7 -24.6 84 -29 -29 1002.8 1001.9 -22.7 106
00 24.03 СЗ 2-2
{2}
50 км 3/0
[Ci sp]
-9.2 -12.2 79 -14 -8 1001.8 1000.9
03 24.03 СЗ 2-2
{4}
50 км 3/0
[Ci sp]
-7.2 -11.1 74 -11 -3 1001.5 1000.6
06 24.03 С 2-2
{4}
50 км 4/0
[Ci sp]
-4.2 -8.0 75 -8 -5 1001.5 1000.6
09 24.03 С 2-2
{4}
50 км 4/0
[Ac trans Ci sp]
-8.5 -11.8 77 -13 -13 1002.0 1001.1 -3.8
12 24.03 СЗ 2-2
{4}
50 км 3/0
[Ac trans]
-15.3 -18.0 80 -20 -20 1003.1 1002.2
15 24.03 СЗ 2-2
{4}
50 км 3/0
[Ac trans]
-16.9 -19.5 80 -22 -22 1003.5 1002.6
18 24.03 СЗ 2-3
{4}
50 км 3/0
[Ac trans]
-17.4 -20.0 80 -23 -23 1004.0 1003.1
21 24.03 СЗ 2-2
{4}
50 км 10/0
[As op]
-13.8 -16.5 80 -19 -19 1004.0 1003.1 -18.1 106
00 25.03 СЗ 4-6
{6}
50 км 10/0
[As op]
-8.1 -10.4 83 -15 -14 1005.4 1004.5
03 25.03 СЗ 4-6
{6}
20 км 10/0
[As op]
-5.3 -8.2 80 -12 -10 1006.3 1005.4
06 25.03 СЗ 4-6
{6}
50 км 4/0
[Ci sp]
-3.5 -9.1 65 -9 -7 1006.3 1005.4
09 25.03 СЗ 2-4
{6}
50 км 4/0
[Ac trans Ci sp]
-6.4 -10.0 76 -11 -11 1006.8 1005.9 -2.5
12 25.03 СЗ 2-2
{4}
50 км 5/0
[Ac trans Ci sp]
-9.3 -11.3 85 -14 -14 1007.2 1006.3
15 25.03 С 2-2
{2}
50 км 3/0
[Ci sp]
-9.7 -11.4 87 -14 -14 1007.4 1006.5
18 25.03 С 2-2
{2}
50 км 4/0
[Ci sp]
-13.3 -14.6 90 -18 -18 1007.1 1006.2
21 25.03 С 2-2
{2}
50 км 5/0
[Ac trans Ci sp]
-13.7 -15.0 90 -18 -18 1006.6 1005.7 -13.9 105
00 26.03 Ю 2-2
{2}
50 км 4/0
[Ac trans Ci sp]
-8.2 -9.6 90 -13 -8 1006.6 1005.7
03 26.03 С 2-2
{4}
50 км 3/0
[Ac trans Ci sp]
-6.8 -9.7 80 -11 -3 1006.6 1005.7

 

Местоположение метеостанции Погиби (Сахалинская область, Россия): широта 52.22 долгота 141.60 высота над уровнем моря 6 м.

В архиве по умолчанию представлена погода в Погибях за последнюю неделю. Архивные данные за месяц целиком и за предыдущие месяцы, начиная с января 2011 года, Вы можете получить, выбрав интересующий диапазон дат из раскрывающегося списка и нажав кнопку "Ввод!".


*Определитесь, кто Вы:
робот инопланетянин человек

Внимание! Время в таблицах - всемирное. Для получения местного времени необходимо прибавить поправку, которая равна 11 ч.

Смотрите также архив погоды в соседних городах и на ближайших метеорологических станциях:

Погода в Джаоре (Хабаровский край, Россия) (57 км)
Погода в Богородском (Хабаровский край, Россия) (84 км)
Погода в Вале (Сахалинская область, Россия) (96 км)
Погода в Ныше (Сахалинская область, Россия) (108 км)
Погода в Ногликах (Сахалинская область, Россия) (108 км)
Погода в Мариинском (Хабаровский край, Россия) (116 км)
Погода в Николаевск-на-Амуре (Хабаровский край, Россия) (120 км)
Погода в Байдукове (Хабаровский край, Россия) (121 км)
Погода в Александровске-Сахалинском (Сахалинская область, Россия) (151 км)
Погода в Москальво (Сахалинская область, Россия) (162 км)

Пояснения к столбцам:

Ветер - указаны скорость ветра в м/с - средняя за 10 мин, порывы в срок и между сроками (в фигурных скобках) и направление, откуда дует ветер: С - северный, СВ - северо-восточный, В - восточный, ЮВ - юго-восточный, Ю - южный, ЮЗ - юго-западный, З - западный, СЗ - северо-западный.
Видимость - горизонтальная дальность видимости в метрах или километрах. При видимости от 1 до 10 км при отсутствии осадков обычно наблюдается дымка, при ухудшении видимости до 1 км и менее - туман. В сухую погоду видимость может ухудшаться дымом, пылью или мглою.
Явления - указаны атмосферные явления, наблюдавшиеся в срок или в последний час перед сроком; фигурными скобками обозначены явления, наблюдавшиеся между сроками (за 1-3 часа до срока); квадратными скобками обозначены град или гололедные отложения с указанием их диаметра в мм.
Облачность - указаны через наклонную черту общая и нижняя облачность в баллах и высота нижней границы облаков в метрах; квадратными скобками обозначены формы облаков: Ci - перистые, Cs - перисто-слоистые, Cc - перисто-кучевые, Ac - высококучевые, As - высокослоистые, Sc - слоисто-кучевые, Ns - слоисто-дождевые, Cu - кучевые, Cb - кучево-дождевые. Подробнее классификацию облаков см. в Атласе облаков (PDF).
T - Температура воздуха - температура, измеренная на высоте 2 м над землей.
Td - Температура точки росы - температура, при понижении до которой содержащийся в воздухе водяной пар достигнет насыщения.
f - Относительная влажность воздуха - влажноcть воздуха, измеренная на высоте 2 м над землей.
Te - Эффективная температура - температура, которую ощущает одетый по сезону человек в тени. Характеристика душности погоды. При расчете учитывается влияние влажности воздуха и скорости ветра на теплоощущения человека.
Tes - Эффективная температура на солнце - температура, которую ощущает человек, с поправкой на солнечный нагрев. Характеристика знойности погоды. Зависит от высоты солнца над горизонтом, облачности и скорости ветра. Ночью, в пасмурную погоду, а также при ветре 12 м/с и более поправка равна нулю.
P - Атмосферное давление - приведенное к уровню моря атмосферное давление.
Po - Атмосферное давление - измеренное на уровне метеостанции атмосферное давление.
Tmin - Минимальная температура - минимум температуры воздуха на высоте 2 м над землей.
Tmax - Максимальная температура - максимум температуры воздуха на высоте 2 м над землей.
R - Количество осадков - Количество выпавших осадков за период времени, мм. При наведении курсора мыши на число - период времени, за который выпало указанное количество осадков.
R24 - Количество осадков - Количество выпавших осадков за 24 часа, мм.
S - Снежный покров - Высота снежного покрова, см. При наведении курсора мыши на число - состояние снежного покрова и степень покрытия местности в баллах.